CW8822 Caguas PR US current weather conditions

sailwx.info

Wind from 066

Air temperature 28.3° C
Dewpoint 24.5° C

Last reported at 2016-Jul-24 13:53 UTC.
Time now 2016-Jul-24 14:43 UTC

Location: N 18°12' W 066°01'.
View on Google Maps.

See reports from other nearby stations

  
Tides and Currents Weather Stations Pressure Air Temp Water Temp Dewpoint Dewpoint Depression Visibility Wind Speed Wind Dir Waves Ship Positions
date/time (UTC)wind fromknots sea level pressurealtimeterstation pressurevisibilityair tempwater tempwave heightnotes
2016-Jul-24 13:53 066 28.3
2016-Jul-24 13:38 078 2 gusting 11 27.2
2016-Jul-24 13:23 051 1 gusting 6 27.8
2016-Jul-24 13:08 062 0 gusting 7 27.2
2016-Jul-24 12:53 138 26.7
2016-Jul-24 12:38 084 0 gusting 5 27.2
2016-Jul-24 12:23 074 26.1
2016-Jul-24 12:08 200 25.6
2016-Jul-24 11:53 200 25.0
2016-Jul-24 11:38 200 24.4
2016-Jul-24 11:23 211 24.4
2016-Jul-24 11:08 228 23.9
2016-Jul-24 10:53 249 23.9
2016-Jul-24 10:38 170 23.3
2016-Jul-24 10:22 136 22.8
2016-Jul-24 10:08 136 22.8
2016-Jul-24 09:52 136 22.8
2016-Jul-24 09:37 136 22.8
2016-Jul-24 09:22 136 22.8
2016-Jul-24 09:07 136 22.8
2016-Jul-24 08:53 136 22.8
2016-Jul-24 08:37 136 23.3
2016-Jul-24 08:22 136 23.3
2016-Jul-24 08:07 136 22.8
2016-Jul-24 07:52 136 22.8
2016-Jul-24 07:37 135 22.8
2016-Jul-24 07:22 135 22.8
2016-Jul-24 07:07 133 23.3
2016-Jul-24 06:52 134 23.3
2016-Jul-24 06:37 140 23.3
2016-Jul-24 06:23 155 23.9
2016-Jul-24 06:07 155 23.9
2016-Jul-24 05:52 155 23.9
2016-Jul-24 05:37 155 23.9
2016-Jul-24 05:22 155 23.9
2016-Jul-24 05:07 155 23.9
2016-Jul-24 04:52 155 23.9
2016-Jul-24 04:37 155 24.4
2016-Jul-24 04:22 155 24.4
2016-Jul-24 04:07 155 24.4
2016-Jul-24 03:52 155 24.4
2016-Jul-24 03:37 155 24.4
2016-Jul-24 03:22 114 24.4
2016-Jul-24 03:07 113 24.4
2016-Jul-24 02:52 113 24.4
2016-Jul-24 02:37 113 24.4
2016-Jul-24 02:22 113 24.4
2016-Jul-24 02:07 113 24.4
2016-Jul-24 01:52 113 24.4
2016-Jul-24 01:37 113 24.4
2016-Jul-24 01:22 113 24.4
2016-Jul-24 01:07 113 24.4
2016-Jul-24 00:52 113 24.4
2016-Jul-24 00:37 113 24.4
2016-Jul-24 00:22 113 24.4
2016-Jul-24 00:07 105 25.0
2016-Jul-23 23:52 107 25.0
2016-Jul-23 23:37 098 25.0
2016-Jul-23 23:22 098 25.6
2016-Jul-23 23:07 078 25.6
2016-Jul-23 22:52 181 26.1
2016-Jul-23 22:37 061 26.1
2016-Jul-23 22:22 103 26.1
2016-Jul-23 22:07 108 26.1
2016-Jul-23 21:52 110 26.1
2016-Jul-23 21:37 114 26.7
2016-Jul-23 21:22 028 26.1
2016-Jul-23 21:07 028 25.6
2016-Jul-23 20:52 027 25.6
2016-Jul-23 20:37 032 26.1
2016-Jul-23 20:22 005 25.0
2016-Jul-23 20:07 014 25.0
2016-Jul-23 19:52 013 25.6
2016-Jul-23 19:37 026 0 gusting 6 27.8
2016-Jul-23 19:22 005 28.9
2016-Jul-23 19:07 071 0 gusting 5 28.3
2016-Jul-23 18:52 030 28.3
2016-Jul-23 18:37 017 27.8
2016-Jul-23 18:22 036 2 gusting 9 31.1
2016-Jul-23 18:07 074 2 gusting 10 30.6
2016-Jul-23 17:52 109 1 gusting 8 30.6
2016-Jul-23 17:37 143 30.6
2016-Jul-23 17:22 142 1 gusting 7 31.1
2016-Jul-23 17:07 061 0 gusting 6 31.1
2016-Jul-23 16:52 126 1 gusting 8 30.6
2016-Jul-23 16:37 057 30.6
2016-Jul-23 16:22 313 0 gusting 10 30.0
2016-Jul-23 16:06 030 28.9
2016-Jul-23 15:51 046 1 gusting 6 28.9
2016-Jul-23 15:36 016 29.4
2016-Jul-23 15:21 047 1 gusting 6 29.4
2016-Jul-23 15:06 033 29.4
2016-Jul-23 14:51 053 0 gusting 4 30.6
2016-Jul-23 14:36 057 29.4
2016-Jul-23 14:21 049 1 gusting 6 29.4
2016-Jul-23 14:06 096 28.3
2016-Jul-23 13:51 112 28.3
2016-Jul-23 13:36 021 28.3
2016-Jul-23 13:21 019 0 gusting 3 28.3
2016-Jul-23 13:06 322 27.8
2016-Jul-23 12:51 298 26.7
2016-Jul-23 12:36 298 26.1
2016-Jul-23 12:21 298 25.6
2016-Jul-23 12:06 298 25.0
2016-Jul-23 11:51 298 25.0
2016-Jul-23 11:36 302 25.0
2016-Jul-23 11:21 302 24.4
2016-Jul-23 11:06 302 23.9
2016-Jul-23 10:51 304 23.3
2016-Jul-23 10:36 304 23.3
2016-Jul-23 10:20 298 23.3
2016-Jul-23 10:05 232 22.8
2016-Jul-23 09:50 134 22.8
2016-Jul-23 09:35 134 22.8
2016-Jul-23 09:20 134 23.3
2016-Jul-23 09:05 134 23.3
2016-Jul-23 08:50 134 23.3
2016-Jul-23 08:35 134 23.3
2016-Jul-23 08:20 134 23.3
2016-Jul-23 08:05 134 23.3
2016-Jul-23 07:50 134 23.9
2016-Jul-23 07:35 134 23.9
2016-Jul-23 07:20 134 23.9
2016-Jul-23 07:05 134 23.9
2016-Jul-23 06:50 134 23.9
2016-Jul-23 06:35 134 23.9
2016-Jul-23 06:20 134 24.4
2016-Jul-23 06:05 134 24.4
2016-Jul-23 05:50 134 24.4
2016-Jul-23 05:35 134 24.4
2016-Jul-23 05:20 134 24.4
2016-Jul-23 05:05 134 24.4
2016-Jul-23 04:50 134 24.4
2016-Jul-23 04:35 144 24.4
2016-Jul-23 04:20 144 24.4
2016-Jul-23 04:05 056 25.0
2016-Jul-23 03:50 056 25.0
2016-Jul-23 03:35 056 25.0
2016-Jul-23 03:20 056 25.0
2016-Jul-23 03:05 056 25.0
2016-Jul-23 02:50 056 25.0
2016-Jul-23 02:35 056 25.0
2016-Jul-23 02:20 056 25.0
2016-Jul-23 02:05 056 25.0
2016-Jul-23 01:50 056 25.0
2016-Jul-23 01:35 056 25.6
2016-Jul-23 01:20 056 25.6
2016-Jul-23 01:05 056 25.6
2016-Jul-23 00:50 056 25.6
2016-Jul-23 00:35 056 25.6
2016-Jul-23 00:20 055 25.6
2016-Jul-23 00:05 055 25.6
2016-Jul-22 23:50 058 26.1
2016-Jul-22 23:35 058 26.1
2016-Jul-22 23:20 058 26.1
2016-Jul-22 23:05 028 26.7
2016-Jul-22 22:50 041 26.7
2016-Jul-22 22:35 042 27.2
2016-Jul-22 22:20 040 1 gusting 7 27.2
2016-Jul-22 22:05 069 27.2
2016-Jul-22 21:50 053 27.2
2016-Jul-22 21:35 018 27.2
2016-Jul-22 21:22 005 2 gusting 11 27.8
2016-Jul-22 21:05 355 3 gusting 9 28.3
2016-Jul-22 20:50 343 28.9
2016-Jul-22 20:35 054 28.9
2016-Jul-22 20:20 063 29.4
2016-Jul-22 20:05 049 0 gusting 5 28.9
2016-Jul-22 19:50 072 30.0
2016-Jul-22 19:35 064 1 gusting 9 30.0
2016-Jul-22 19:20 080 30.6
2016-Jul-22 19:05 059 3 gusting 7 30.6
2016-Jul-22 18:50 026 0 gusting 7 31.1
2016-Jul-22 18:35 056 31.7
2016-Jul-22 18:20 140 31.7
2016-Jul-22 18:04 052 31.7
2016-Jul-22 17:49 159 31.1
2016-Jul-22 17:34 146 31.1
2016-Jul-22 17:20 102 30.6
2016-Jul-22 17:04 044 30.6
2016-Jul-22 16:49 044 0 gusting 7 30.6
2016-Jul-22 16:34 108 31.1
2016-Jul-22 16:19 076 30.6
2016-Jul-22 16:04 136 30.6
2016-Jul-22 15:49 069 31.1
2016-Jul-22 15:34 117 30.6
2016-Jul-22 15:04 015 30.0
2016-Jul-22 14:49 086 30.0
2016-Jul-22 14:34 037 1 gusting 6 30.0
2016-Jul-22 14:19 110 29.4
2016-Jul-22 14:04 111 28.3